FMEE Airport Information

Runway Information
Runway 12 Length 10499 ft width 148 ft
Elevation 38 ft Threshold 398 ft Heading 102
Runway 30 Length 10499 ft Width 148 ft
Elevation 31 ft Threshold 0 ft Heading 282
Runway 14 Length 8760 ft width 148 ft
Elevation 27 ft Threshold 328 ft Heading 116
Runway 32 Length 8760 ft Width 148 ft
Elevation 65 ft Threshold 1165 ft Heading 296
Airport Frequencies
Type A/G Name GILLOT RDO Frequency 347.6 MHZ
Type APP Name GILLOT APP Frequency 119.4 MHZ
Type ATIS Name ATIS Frequency 126.8 MHZ
Type GND Name GILLOT GND Frequency 121.9 MHZ
Type TWR Name GILLOT TWR Frequency 118.4 MHZ
Airport Navaids
Type NDB Name St Denis Gillot Frequency 382 KHZ
Type VOR-DME Name St Denis Gillot Frequency 112900 KHZ
Airport Weather Information & NOTAM
ADDS - METARS form results

(0948 UTC 26 May 2018)
 
METAR text: FMEE 260930Z 09019KT 9999 FEW026 27/19 Q1017 NOSIG
Conditions at: FMEE (ST. DENIS/GILLOT, FR) observed 0930 UTC 26 May 2018
Temperature: 27.0°C (81°F)
Dewpoint: 19.0°C (66°F) [RH = 62%]
Pressure (altimeter): 30.03 inches Hg (1017.0 mb)
Winds: from the E (90 degrees) at 22 MPH (19 knots; 9.9 m/s)
Visibility: 6 or more miles (10+ km)
Ceiling: at least 12,000 feet AGL
Clouds: few clouds at 2600 feet AGL
Weather: no significant weather observed at this time

METAR text: FMEE 260900Z 10017KT 9999 FEW026 27/19 Q1017 NOSIG
Conditions at: FMEE (ST. DENIS/GILLOT, FR) observed 0900 UTC 26 May 2018
Temperature: 27.0°C (81°F)
Dewpoint: 19.0°C (66°F) [RH = 62%]
Pressure (altimeter): 30.03 inches Hg (1017.0 mb)
Winds: from the E (100 degrees) at 20 MPH (17 knots; 8.8 m/s)
Visibility: 6 or more miles (10+ km)
Ceiling: at least 12,000 feet AGL
Clouds: few clouds at 2600 feet AGL
Weather: no significant weather observed at this time